Location: Unspecified
(0.0000°N, 0.0000°E)
Time: 21:15:10
(UTC+00:00)

Explorer 7 - Visible Passes

Search period start: 30 July 2014 00:00
Search period end: 09 August 2014 00:00
Orbit: 492 x 707 km, 50.3° (Epoch: 30 July)

Date Brightness Start Highest point End Pass type
(mag) Time Alt. Az. Time Alt. Az. Time Alt. Az.
30 Jul 9.1 20:17:14 10° NNW 20:19:27 25° N 20:19:27 25° N visible
31 Jul 9.0 20:27:32 10° NW 20:30:06 30° NW 20:30:06 30° NW visible
01 Aug 8.8 18:58:29 10° N 19:02:12 21° NE 19:04:07 17° E visible
01 Aug 9.4 20:38:31 10° WNW 20:40:50 23° W 20:40:50 23° W visible
02 Aug 7.8 19:07:56 10° NNW 19:12:43 44° NE 19:14:56 28° ESE visible
02 Aug 10.1 20:50:33 10° W 20:51:40 13° WSW 20:51:40 13° WSW visible
03 Aug 7.3 19:18:10 10° NW 19:23:12 82° SW 19:25:50 29° SSE visible
04 Aug 8.6 19:29:05 10° WNW 19:33:41 36° SW 19:36:46 19° S visible
05 Aug 9.7 19:40:58 10° W 19:44:13 17° SW 19:47:28 10° SSW visible
08 Aug 9.0 04:46:16 10° S 04:49:07 19° SE 04:51:53 10° E visible
08 Aug 9.8 18:31:24 10° W 18:34:48 18° SW 18:38:14 10° S visible
